Weather History for Ocala, FL

Change the Weather History Date:

Friday, October 14, 2011

  Actual Average Record
Temperature  
Mean Temperature 71 °F -  
Max Temperature 82 °F 80 °F 89 °F (1997)
Min Temperature 59 °F 59 °F 53 °F (2004)
Cooling Degree Days 6    
Growing Degree Days 21 (Base 50)    
Moisture  
Dew Point 60 °F    
Average Humidity 75    
Maximum Humidity 94    
Minimum Humidity 35    
Precipitation  
Precipitation 0.00 in - - ()
Sea Level Pressure  
Sea Level Pressure 29.89 in    
Wind  
Wind Speed 3 mph (NNW)    
Max Wind Speed 9 mph    
Max Gust Speed -    
Visibility 9 miles    
Events      
Averages and records for this station are not official NWS values.
T = Trace of Precipitation, MM = Missing Value Source: NWS Daily Summary

Daily Weather History Graph

Daily Weather History Graph

Search for Another Location

Airport:

Trip Planner

Search our weather history database for the weather conditions in past years. The results will help you decide how hot, cold, wet, or windy it might be!

Date:

Astronomy

Oct. 14, 2011 Rise Set
Actual Time 7:29 AM EDT 7:00 PM EDT
Civil Twilight 7:05 AM EDT 7:23 PM EDT
Nautical Twilight 6:37 AM EDT 7:51 PM EDT
Astronomical Twilight 6:10 AM EDT 8:18 PM EDT
Moon 8:29 PM EDT (10/14) 9:41 AM EDT (10/14)
Length of Visible Light 12h 18m
Length of Day
11h 30m
Waning Gibbous, 94% of the Moon is Illuminated
Oct 14
Waning Gibbous
Oct 19
Last Quarter
Oct 26
New
Nov 2
First Quarter
Nov 10
Full

Hourly Weather History & Observations

Time (EDT) Temp. Heat Index Dew Point Humidity Pressure Visibility Wind Dir Wind Speed Gust Speed Precip Events Conditions
12:15 AM 69.8 °F - 66.2 °F 88% 29.82 in 3.0 mi Calm Calm - N/A   Clear
12:35 AM 69.8 °F - 66.2 °F 88% 29.82 in 1.0 mi Calm Calm - N/A   Clear
12:55 AM 69.8 °F - 66.2 °F 88% 29.82 in 10.0 mi Calm Calm - N/A   Clear
1:15 AM 69.8 °F - 66.2 °F 88% 29.82 in 10.0 mi Calm Calm - N/A   Clear
1:35 AM 68.0 °F - 64.4 °F 88% 29.82 in 10.0 mi South 3.5 mph - N/A   Clear
1:55 AM 69.8 °F - 66.2 °F 88% 29.82 in 8.0 mi South 4.6 mph - N/A   Clear
2:15 AM 66.2 °F - 64.4 °F 94% 29.82 in 6.0 mi SW 4.6 mph - N/A   Clear
2:35 AM 68.0 °F - 64.4 °F 88% 29.82 in 8.0 mi SW 4.6 mph - N/A   Clear
2:55 AM 68.0 °F - 64.4 °F 88% 29.82 in 10.0 mi SW 3.5 mph - N/A   Partly Cloudy
3:15 AM 68.0 °F - 64.4 °F 88% 29.81 in 7.0 mi SSW 3.5 mph - N/A   Clear
3:35 AM 68.0 °F - 64.4 °F 88% 29.81 in 7.0 mi SSW 3.5 mph - N/A   Partly Cloudy
3:55 AM 68.0 °F - 64.4 °F 88% 29.81 in 5.0 mi SSW 4.6 mph - N/A   Mostly Cloudy
4:15 AM 68.0 °F - 64.4 °F 88% 29.81 in 7.0 mi Calm Calm - N/A   Mostly Cloudy
4:35 AM 66.2 °F - 64.4 °F 94% 29.81 in 9.0 mi Calm Calm - N/A   Mostly Cloudy
4:55 AM 69.8 °F - 66.2 °F 88% 29.82 in 10.0 mi NNW 6.9 mph - N/A   Partly Cloudy
5:15 AM 68.0 °F - 64.4 °F 88% 29.82 in 10.0 mi NNW 6.9 mph - N/A   Clear
5:35 AM 66.2 °F - 64.4 °F 94% 29.83 in 7.0 mi North 4.6 mph - N/A   Clear
5:55 AM 66.2 °F - 62.6 °F 88% 29.83 in 10.0 mi North 5.8 mph - N/A   Clear
6:15 AM 66.2 °F - 62.6 °F 88% 29.85 in 10.0 mi North 5.8 mph - N/A   Clear
6:35 AM 64.4 °F - 62.6 °F 94% 29.85 in 10.0 mi North 5.8 mph - N/A   Clear
6:50 AM 64.4 °F - 60.8 °F 88% 29.86 in 10.0 mi North 5.8 mph - N/A   Clear
7:50 AM 64.4 °F - 60.8 °F 88% 29.87 in 10.0 mi North 4.6 mph - N/A   Clear
8:50 AM 68.0 °F - 62.6 °F 83% 29.90 in 10.0 mi North 4.6 mph - N/A   Clear
9:50 AM 71.6 °F - 62.6 °F 73% 29.92 in 10.0 mi North 9.2 mph - N/A   Clear
10:53 AM 75.2 °F - 59.0 °F 57% 29.94 in 10.0 mi NNE 6.9 mph - N/A   Clear
11:50 AM 78.8 °F - 57.2 °F 47% 29.94 in 10.0 mi ESE 8.1 mph - N/A   Clear
12:50 PM 78.8 °F - 55.4 °F 44% 29.93 in 10.0 mi North 4.6 mph - N/A   Clear
1:50 PM 80.6 °F 80.3 °F 53.6 °F 39% 29.91 in 10.0 mi NNE 8.1 mph - N/A   Clear
2:50 PM 80.6 °F 80.3 °F 53.6 °F 39% 29.90 in 10.0 mi NE 3.5 mph - N/A   Clear
3:50 PM 80.6 °F 80.3 °F 53.6 °F 39% 29.89 in 10.0 mi WNW 9.2 mph - N/A   Clear
4:50 PM 82.4 °F - 51.8 °F 35% 29.89 in 10.0 mi NNW 4.6 mph - N/A   Clear
5:50 PM 80.6 °F 80.3 °F 53.6 °F 39% 29.90 in 10.0 mi NW 4.6 mph - N/A   Clear
6:50 PM 73.4 °F - 57.2 °F 57% 29.91 in 10.0 mi NW 3.5 mph - N/A   Clear
7:55 PM 69.8 °F - 53.6 °F 56% 29.93 in 10.0 mi North 3.5 mph - N/A   Clear
8:15 PM 68.0 °F - 53.6 °F 60% 29.94 in 10.0 mi Calm Calm - N/A   Clear
8:35 PM 66.2 °F - 53.6 °F 64% 29.95 in 10.0 mi Calm Calm - N/A   Clear
8:55 PM 64.4 °F - 53.6 °F 68% 29.96 in 10.0 mi Calm Calm - N/A   Clear
9:15 PM 64.4 °F - 55.4 °F 73% 29.97 in 10.0 mi North 3.5 mph - N/A   Clear
9:35 PM 62.6 °F - 55.4 °F 77% 29.99 in 10.0 mi Calm Calm - N/A   Clear
9:55 PM 64.4 °F - 55.4 °F 73% 29.99 in 10.0 mi Calm Calm - N/A   Clear
10:15 PM 62.6 °F - 55.4 °F 77% 30.00 in 10.0 mi Calm Calm - N/A   Clear
10:35 PM 60.8 °F - 53.6 °F 77% 30.00 in 10.0 mi Calm Calm - N/A   Clear
10:55 PM 60.8 °F - 53.6 °F 77% 30.01 in 10.0 mi Calm Calm - N/A   Clear
11:15 PM 60.8 °F - 53.6 °F 77% 30.01 in 10.0 mi Calm Calm - N/A   Clear
11:35 PM 60.8 °F - 53.6 °F 77% 30.01 in 10.0 mi Calm Calm - N/A   Clear
11:55 PM 59.0 °F - 53.6 °F 82% 30.02 in 10.0 mi Calm Calm - N/A   Clear